SCP
0 0 0 0 0 0 0 0 0 0 0 0 0 0 0 0 0 0 0 0 0 0 0 0 0 0 0 0 0 0 0 0 0 0 0 0 0 0 0 0 0 0 0
0 0 0 0 0 0 0 0 0 0 0 0 0 0 0 0 0 0 0 0 0 0 0 0 0 0 0 0 0 0 0 0 0 0 0 0 0 0 0 0 0 0 0
0 0 0 0 0 0 0 0 0 0 0 0 0 0 0 0 0 0 0 0 0 0 0 0 0 0 0 0 0 0 0 0 0 0 0 0 0 0 0 0 0 0 0
0 0 0 0 0 0 0 0 0 0 0 0 0 0 0 0 0 0 0 0 0 0 0 0 0 0 0 0 0 0 0 0 0 0 0 0 0 0 0 0 0 0 0
0 0 0 0 0 0 0 0 0 0 0 0 0 0 0 0 0 0 0 0 0 0 0 0 0 0 0 0 0 0 0 0 0 0 0 0 0 0 0 0 0 0 0
0 0 0 0 0 0 0 0 0 0 0 0 0 0 0 0 0 0 0 0 0 0 0 0 0 0 0 0 0 0 0 0 0 0 0 0 0 0 0 0 0 0 0
0 0 0 0 0 0 0 0 0 0 0 0 0 0 0 0 0 0 0 0 0 0 0 0 0 0 0 0 0 0 0 0 0 0 0 0 0 0 0 0 0 0 0
0 0 0 0 0 0 0 0 0 0 0 0 0 0 0 0 0 0 0 0 0 0 0 0 0 0 0 0 0 0 0 0 0 0 0 0 0 0 0 0 0 0 0
0 0 0 0 0 0 0 0 0 0 0 0 0 0 0 0 0 0 0 0 0 0 0 0 0 0 0 0 0 0 0 0 0 0 0 0 0 0 0 0 0 0 0
0 0 0 0 0 0 0 0 0 0 0 0 0 0 0 0 0 0 0 -0 -0 -0 -0 -0 -0 0 0 0 0 0 0 0 0 0 0 0 0 0 0 0 0 0 0
0 0 0 0 0 0 0 0 0 0 0 0 0 0 -0 -0 -0 -0 0 -0 0 0 0 0 0 0 0 0 0 0 0 0 0 0 0 0 0 0 0 0 0 0 0
0 0 0 0 0 0 0 0 0 0 0 0 0 -0 -0 -0 -0 -0 -0 -0 0 0 0 0 0 0 0 0 0 0 0 0 0 0 0 0 0 0 0 0 0 0 0
0 0 0 0 0 0 0 0 0 0 0 0 0 -0 -0 -0 -0 -0 -0 -0 -0 -0 0 0 0 0 0 0 0 0 0 0 0 0 0 0 0 0 0 0 0 0 0
0 0 0 0 0 0 0 0 0 0 0 0 0 -0 -0 -0 -0 -0 -0 -0 -0 0 0 0 0 0 0 0 0 0 0 0 0 0 0 0 0 0 0 0 0 0 0
0 0 0 0 0 0 0 0 0 0 0 0 0 0 0 0 0 0 -0 -0 0 0 0 0 0 0 0 0 0 0 0 0 0 0 0 0 0 0 0 0 0 0 0
0 0 0 0 0 0 0 0 0 0 0 0 0 0 0 0 -0 -0 -0 -0 0 0 0 0 0 0 0 0 0 0 0 0 0 0 0 0 0 0 0 0 0 0 0
0 0 0 0 0 0 0 0 0 0 0 0 0 0 0 0 0 -0 -0 -0 -0 0 0 0 0 0 0 0 0 0 0 0 -0 0 0 0 0 0 0 0 0 0 0
0 0 0 0 0 0 0 0 0 0 0 0 0 0 0 -0 -0 -0 -0 0 0 0 0 0 0 0 0 0 0 0 0 0 0 0 0 0 0 0 0 0 -0 0 0
0 0 0 0 0 0 0 0 0 0 0 0 0 0 0 -0 -0 -0 -0 0 0 0 0 0 0 0 0 0 0 0 0 0 0 0 0 0 0 0 0 0 0 0 0
0 0 0 0 0 0 0 0 0 0 0 0 0 0 0 0 0 0 0 0 0 0 0 0 0 0 0 0 0 0 0 0 0 0 0 0 0 0 0 0 0 0 0
0 0 0 0 0 0 0 0 0 0 0 0 0 0 -0 0 0 0 0 0 0 0 0 0 0 0 0 0 0 0 0 0 0 0 0 0 0 0 0 0 0 0 0
0 0 0 0 0 0 0 0 0 0 0 0 0 0 -0 0 0 0 0 0 0 0 0 0 0 0 0 0 0 0 0 0 0 0 0 0 0 0 0 0 0 0 -0
0 0 0 0 0 0 0 0 0 0 0 0 0 0 0 0 0 0 0 0 0 0 0 0 0 0 0 0 0 0 0 0 0 0 0 0 0 0 0 0 0 0 0
0 0 0 0 0 0 0 0 0 0 0 0 0 0 0 0 0 0 0 0 0 0 0 0 0 0 0 0 0 0 0 0 0 0 0 0 0 0 0 0 0 0 0
0 0 0 0 0 0 0 0 0 0 0 0 0 0 0 0 0 0 0 0 0 0 0 0 0 0 0 0 0 0 0 0 0 0 0 0 -0 0 0 0 0 0 0
0 0 0 0 0 0 0 0 0 0 0 0 0 0 0 0 0 0 0 0 0 0 0 0 0 0 0 0 0 0 0 -0 0 -0 0 -0 0 0 0 0 0 0 0
Wind_Speed_500mb
23 23 22 20 17 13 10 7 5 6 10 14 17 20 23 26 29 32 35 38 43 48 52 57 60 61 61 63 65 70 72 74 81 100 92 91 91 91 84 82 81 79 72
24 21 16 12 8 4 2 6 10 13 17 22 27 31 34 37 39 42 45 47 49 51 52 53 57 56 54 60 68 70 73 74 83 92 91 94 95 93 86 80 87 81 83
19 15 11 10 10 11 14 19 26 31 33 33 36 39 41 44 49 50 53 54 55 58 58 59 59 59 62 61 53 51 57 69 76 83 95 92 99 98 97 99 97 99 86
18 15 12 12 15 17 19 23 25 32 40 41 40 40 42 42 42 48 52 57 60 61 61 63 64 63 62 67 71 74 77 77 70 67 74 85 87 91 90 93 101 97 106
13 11 13 14 16 23 27 25 28 32 36 37 36 35 36 37 40 45 49 52 55 58 57 56 57 59 62 62 67 73 75 80 85 91 104 108 116 94 82 82 88 96 101
18 16 14 12 14 17 19 22 24 25 27 29 32 34 35 37 39 44 50 54 55 57 60 58 57 57 57 57 57 58 58 63 72 80 96 103 117 97 78 82 85 91 98
16 12 9 9 11 14 16 20 23 26 30 34 37 39 41 42 47 53 57 59 62 62 64 64 67 66 66 65 65 66 65 64 64 67 83 92 103 93 90 91 86 87 104
13 10 9 7 9 13 18 23 28 31 35 39 41 46 50 50 54 59 64 67 68 68 69 72 72 73 73 74 76 80 77 76 73 70 76 85 86 89 77 77 79 81 97
8 12 5 6 11 15 20 25 31 35 40 44 49 53 58 62 65 67 69 74 77 79 79 81 82 84 82 78 79 88 93 93 85 82 86 91 93 94 84 84 94 80 116
18 15 5 10 15 19 25 31 36 42 45 49 52 54 56 59 62 67 70 77 84 88 93 93 90 89 90 86 85 90 105 105 103 105 106 106 104 104 100 87 90 88 90
14 10 10 17 22 27 33 40 43 46 48 50 53 56 60 64 66 67 69 69 73 80 83 88 89 82 81 80 77 87 98 105 112 107 116 121 119 117 108 97 88 84 88
13 13 15 22 28 32 36 38 40 43 47 52 58 63 68 68 70 70 59 52 57 71 80 87 93 83 88 90 90 88 91 93 103 114 111 119 108 104 100 95 91 90 90
14 17 20 23 26 28 30 33 38 43 49 53 59 66 71 72 73 62 61 59 62 72 77 81 86 89 88 91 93 90 86 86 87 91 101 102 97 99 101 97 95 91 96
15 17 18 20 23 26 30 34 37 41 46 53 59 65 71 74 75 76 73 76 75 78 84 95 90 85 91 94 95 89 78 71 75 86 97 106 107 106 105 94 85 80 83
13 15 18 21 25 28 31 34 37 38 44 51 53 59 68 73 70 65 69 74 76 79 85 88 94 97 91 91 90 90 92 83 73 77 93 107 105 92 106 100 93 95 93
13 17 20 23 26 29 34 36 37 41 43 47 51 54 57 57 60 64 65 68 69 69 77 82 82 82 83 86 86 86 87 87 90 83 81 91 99 102 115 94 96 96 98
17 19 21 24 29 33 36 42 48 42 46 49 53 56 56 60 59 62 65 65 62 61 67 70 72 76 81 86 89 88 92 92 84 84 86 81 91 99 96 109 105 101 102
15 19 23 26 29 33 38 42 47 54 57 57 54 58 61 61 60 58 56 63 71 65 65 68 72 77 81 84 88 90 93 93 92 92 87 89 89 88 96 96 103 103 104
16 19 22 25 28 32 36 40 44 49 55 61 65 63 66 66 64 57 60 64 69 69 67 68 70 76 81 85 87 89 89 93 96 95 91 90 91 89 91 101 99 108 102
18 21 24 28 30 34 37 41 46 49 54 58 61 64 68 72 74 74 69 65 66 66 66 70 73 77 82 85 88 89 92 96 98 97 96 97 98 94 97 96 99 98 100
20 23 25 28 32 36 39 43 48 52 55 58 60 59 59 62 71 70 71 69 66 66 66 70 75 79 82 85 87 89 91 95 97 102 108 107 100 104 104 104 104 101 101
23 26 30 33 36 38 41 46 50 53 56 60 63 63 60 63 67 70 70 70 69 68 67 72 76 77 79 81 84 88 91 94 100 110 116 113 111 110 110 107 105 104 101
27 30 32 35 39 43 46 48 53 55 59 62 65 67 67 67 69 69 70 71 72 71 70 73 73 76 72 74 79 85 89 92 99 114 118 123 123 115 104 107 104 101 102
30 34 38 41 45 48 51 53 55 58 62 66 68 70 70 70 71 71 71 72 73 72 73 74 72 76 74 74 80 84 83 84 98 112 116 130 103 112 110 101 102 105 100
34 38 42 46 50 53 56 58 61 63 65 68 71 72 72 72 73 72 72 72 74 75 75 75 73 75 77 79 80 80 77 80 90 100 119 102 114 105 95 92 94 93 92
37 40 44 47 51 54 58 63 66 67 69 71 73 73 74 75 75 74 73 73 75 77 76 76 77 76 78 76 78 71 72 82 97 106 102 114 105 105 92 89 83 79 73
Wind_Direction_500mb
152 153 155 159 162 164 172 182 209 248 268 275 280 283 287 289 287 285 282 280 276 276 274 273 277 281 281 281 279 278 275 269 270 284 285 285 284 287 286 284 283 280 284
144 140 137 134 137 151 239 277 277 277 286 293 295 297 297 295 293 290 286 282 281 278 275 272 271 272 276 281 280 281 281 279 276 277 282 286 286 287 284 283 286 278 275
157 164 174 196 217 246 271 290 300 300 299 297 295 293 293 295 293 290 286 284 279 276 275 272 270 267 264 262 263 275 281 281 279 281 283 285 283 283 284 284 280 285 283
186 195 216 248 271 279 288 294 295 296 300 302 306 309 307 307 307 301 297 295 294 292 288 286 284 280 277 273 271 269 266 265 268 274 278 280 282 284 281 281 284 281 288
216 238 260 272 281 291 296 298 306 311 309 317 320 322 323 319 318 314 309 308 307 307 305 301 297 292 289 286 282 280 278 277 276 274 269 269 270 274 279 286 282 284 283
239 246 254 274 291 294 303 309 312 316 323 322 323 325 326 329 324 322 319 316 315 314 312 311 308 305 302 298 293 287 285 283 278 278 276 274 275 274 278 278 279 282 283
228 237 253 268 288 302 310 316 322 328 330 331 333 332 331 330 327 324 321 319 318 319 316 314 312 311 308 305 301 296 293 289 284 281 277 276 279 282 280 277 273 274 277
222 226 240 278 301 315 321 323 325 327 327 326 325 324 322 324 321 318 319 316 314 314 312 310 308 307 306 305 302 298 297 295 293 290 285 284 279 278 270 266 269 270 269
253 266 248 291 299 308 316 319 321 322 322 322 321 321 322 321 320 318 316 314 312 310 308 306 305 303 302 304 301 298 294 292 292 289 286 284 282 283 279 279 275 276 271
228 246 282 321 322 323 323 324 325 324 323 323 323 324 325 323 322 322 321 319 316 312 310 310 308 305 304 305 306 304 298 295 296 293 288 283 281 280 282 277 276 268 265
230 281 320 320 324 326 328 326 327 328 329 331 331 334 333 332 329 326 325 320 316 313 311 309 306 307 307 307 304 298 295 301 299 296 294 291 290 288 285 282 275 266 264
245 283 307 315 320 322 324 327 331 332 333 334 334 334 334 332 329 328 326 321 317 311 309 307 308 311 307 305 303 300 298 296 293 294 291 290 288 288 288 287 280 269 265
270 298 305 314 319 324 328 329 332 333 333 333 333 332 333 332 331 329 322 321 317 313 309 308 306 307 308 304 306 305 301 297 292 288 288 287 286 287 288 285 283 277 270
280 298 312 322 326 326 327 329 331 331 331 332 334 333 331 331 330 329 326 324 323 316 314 314 313 307 306 309 310 311 310 304 295 290 288 290 291 289 289 285 280 278 274
301 314 321 322 322 325 328 330 332 335 336 334 334 331 330 327 328 322 321 320 318 317 314 310 306 311 314 315 314 313 312 310 301 295 289 289 287 294 285 283 280 278 273
307 314 320 324 326 329 331 332 335 334 337 339 340 335 329 320 319 320 318 318 317 317 309 308 313 316 316 317 315 313 313 311 308 306 298 295 296 293 284 291 275 272 270
313 317 321 329 333 334 331 330 330 334 337 339 340 339 334 327 324 323 321 319 314 313 313 319 319 319 318 318 318 316 313 313 309 303 304 298 294 298 293 290 283 273 265
312 325 334 333 328 329 333 334 332 332 333 338 342 342 340 334 331 325 323 317 319 323 324 324 322 322 321 321 320 318 318 318 315 312 305 302 302 297 295 290 290 286 269
320 319 318 319 324 327 329 330 330 331 334 336 340 344 342 336 336 338 332 325 325 325 324 323 325 324 325 326 324 322 320 318 319 316 312 305 302 301 294 293 292 283 288
310 313 322 321 327 328 328 328 328 330 331 333 338 341 338 336 338 336 336 330 327 323 321 321 323 326 328 328 328 327 325 324 323 322 315 309 306 303 298 295 293 295 284
308 312 313 321 325 325 322 322 324 328 328 329 332 336 337 326 330 332 333 332 328 324 321 319 319 323 328 330 329 328 325 325 328 324 320 315 306 301 299 297 295 293 294
308 314 317 317 314 315 318 322 322 321 324 324 328 331 332 329 329 330 330 329 328 326 324 322 320 322 327 331 331 328 326 327 330 326 318 309 304 301 298 296 293 292 293
306 304 304 311 314 315 317 318 318 320 321 323 324 325 327 327 327 327 327 328 327 327 326 325 322 323 325 328 329 330 328 329 331 328 312 308 304 300 300 295 292 289 288
299 304 310 310 310 311 312 314 317 319 320 321 321 321 322 321 322 324 325 326 326 325 326 325 324 326 324 323 327 328 328 333 335 324 325 314 310 308 301 294 291 293 287
301 303 303 306 307 309 312 314 315 317 316 315 315 315 317 318 318 320 322 323 324 324 326 327 326 328 328 324 321 325 330 338 338 336 330 321 323 322 316 307 301 301 291
295 299 302 304 307 310 313 314 314 314 315 313 312 313 314 315 316 318 319 321 321 323 324 325 328 330 330 329 332 331 334 344 339 337 334 332 329 328 327 322 316 310 295
Wind_Speed_850mb
23 23 22 20 17 13 10 7 5 6 10 14 17 20 23 26 29 32 35 38 43 48 52 57 60 61 61 63 65 70 72 74 81 100 92 91 91 91 84 82 81 79 72
24 21 16 12 8 4 2 6 10 13 17 22 27 31 34 37 39 42 45 47 49 51 52 53 57 56 54 60 68 70 73 74 83 92 91 94 95 93 86 80 87 81 83
19 15 11 10 10 11 14 19 26 31 33 33 36 39 41 44 49 50 53 54 55 58 58 59 59 59 62 61 53 51 57 69 76 83 95 92 99 98 97 99 97 99 86
18 15 12 12 15 17 19 23 25 32 40 41 40 40 42 42 42 48 52 57 60 61 61 63 64 63 62 67 71 74 77 77 70 67 74 85 87 91 90 93 101 97 106
13 11 13 14 16 23 27 25 28 32 36 37 36 35 36 37 40 45 49 52 55 58 57 56 57 59 62 62 67 73 75 80 85 91 104 108 116 94 82 82 88 96 101
18 16 14 12 14 17 19 22 24 25 27 29 32 34 35 37 39 44 50 54 55 57 60 58 57 57 57 57 57 58 58 63 72 80 96 103 117 97 78 82 85 91 98
16 12 9 9 11 14 16 20 23 26 30 34 37 39 41 42 47 53 57 59 62 62 64 64 67 66 66 65 65 66 65 64 64 67 83 92 103 93 90 91 86 87 104
13 10 9 7 9 13 18 23 28 31 35 39 41 46 50 50 54 59 64 67 68 68 69 72 72 73 73 74 76 80 77 76 73 70 76 85 86 89 77 77 79 81 97
8 12 5 6 11 15 20 25 31 35 40 44 49 53 58 62 65 67 69 74 77 79 79 81 82 84 82 78 79 88 93 93 85 82 86 91 93 94 84 84 94 80 116
18 15 5 10 15 19 25 31 36 42 45 49 52 54 56 59 62 67 70 77 84 88 93 93 90 89 90 86 85 90 105 105 103 105 106 106 104 104 100 87 90 88 90
14 10 10 17 22 27 33 40 43 46 48 50 53 56 60 64 66 67 69 69 73 80 83 88 89 82 81 80 77 87 98 105 112 107 116 121 119 117 108 97 88 84 88
13 13 15 22 28 32 36 38 40 43 47 52 58 63 68 68 70 70 59 52 57 71 80 87 93 83 88 90 90 88 91 93 103 114 111 119 108 104 100 95 91 90 90
14 17 20 23 26 28 30 33 38 43 49 53 59 66 71 72 73 62 61 59 62 72 77 81 86 89 88 91 93 90 86 86 87 91 101 102 97 99 101 97 95 91 96
15 17 18 20 23 26 30 34 37 41 46 53 59 65 71 74 75 76 73 76 75 78 84 95 90 85 91 94 95 89 78 71 75 86 97 106 107 106 105 94 85 80 83
13 15 18 21 25 28 31 34 37 38 44 51 53 59 68 73 70 65 69 74 76 79 85 88 94 97 91 91 90 90 92 83 73 77 93 107 105 92 106 100 93 95 93
13 17 20 23 26 29 34 36 37 41 43 47 51 54 57 57 60 64 65 68 69 69 77 82 82 82 83 86 86 86 87 87 90 83 81 91 99 102 115 94 96 96 98
17 19 21 24 29 33 36 42 48 42 46 49 53 56 56 60 59 62 65 65 62 61 67 70 72 76 81 86 89 88 92 92 84 84 86 81 91 99 96 109 105 101 102
15 19 23 26 29 33 38 42 47 54 57 57 54 58 61 61 60 58 56 63 71 65 65 68 72 77 81 84 88 90 93 93 92 92 87 89 89 88 96 96 103 103 104
16 19 22 25 28 32 36 40 44 49 55 61 65 63 66 66 64 57 60 64 69 69 67 68 70 76 81 85 87 89 89 93 96 95 91 90 91 89 91 101 99 108 102
18 21 24 28 30 34 37 41 46 49 54 58 61 64 68 72 74 74 69 65 66 66 66 70 73 77 82 85 88 89 92 96 98 97 96 97 98 94 97 96 99 98 100
20 23 25 28 32 36 39 43 48 52 55 58 60 59 59 62 71 70 71 69 66 66 66 70 75 79 82 85 87 89 91 95 97 102 108 107 100 104 104 104 104 101 101
23 26 30 33 36 38 41 46 50 53 56 60 63 63 60 63 67 70 70 70 69 68 67 72 76 77 79 81 84 88 91 94 100 110 116 113 111 110 110 107 105 104 101
27 30 32 35 39 43 46 48 53 55 59 62 65 67 67 67 69 69 70 71 72 71 70 73 73 76 72 74 79 85 89 92 99 114 118 123 123 115 104 107 104 101 102
30 34 38 41 45 48 51 53 55 58 62 66 68 70 70 70 71 71 71 72 73 72 73 74 72 76 74 74 80 84 83 84 98 112 116 130 103 112 110 101 102 105 100
34 38 42 46 50 53 56 58 61 63 65 68 71 72 72 72 73 72 72 72 74 75 75 75 73 75 77 79 80 80 77 80 90 100 119 102 114 105 95 92 94 93 92
37 40 44 47 51 54 58 63 66 67 69 71 73 73 74 75 75 74 73 73 75 77 76 76 77 76 78 76 78 71 72 82 97 106 102 114 105 105 92 89 83 79 73
Wind_Direction_850mb
152 153 155 159 162 164 172 182 209 248 268 275 280 283 287 289 287 285 282 280 276 276 274 273 277 281 281 281 279 278 275 269 270 284 285 285 284 287 286 284 283 280 284
144 140 137 134 137 151 239 277 277 277 286 293 295 297 297 295 293 290 286 282 281 278 275 272 271 272 276 281 280 281 281 279 276 277 282 286 286 287 284 283 286 278 275
157 164 174 196 217 246 271 290 300 300 299 297 295 293 293 295 293 290 286 284 279 276 275 272 270 267 264 262 263 275 281 281 279 281 283 285 283 283 284 284 280 285 283
186 195 216 248 271 279 288 294 295 296 300 302 306 309 307 307 307 301 297 295 294 292 288 286 284 280 277 273 271 269 266 265 268 274 278 280 282 284 281 281 284 281 288
216 238 260 272 281 291 296 298 306 311 309 317 320 322 323 319 318 314 309 308 307 307 305 301 297 292 289 286 282 280 278 277 276 274 269 269 270 274 279 286 282 284 283
239 246 254 274 291 294 303 309 312 316 323 322 323 325 326 329 324 322 319 316 315 314 312 311 308 305 302 298 293 287 285 283 278 278 276 274 275 274 278 278 279 282 283
228 237 253 268 288 302 310 316 322 328 330 331 333 332 331 330 327 324 321 319 318 319 316 314 312 311 308 305 301 296 293 289 284 281 277 276 279 282 280 277 273 274 277
222 226 240 278 301 315 321 323 325 327 327 326 325 324 322 324 321 318 319 316 314 314 312 310 308 307 306 305 302 298 297 295 293 290 285 284 279 278 270 266 269 270 269
253 266 248 291 299 308 316 319 321 322 322 322 321 321 322 321 320 318 316 314 312 310 308 306 305 303 302 304 301 298 294 292 292 289 286 284 282 283 279 279 275 276 271
228 246 282 321 322 323 323 324 325 324 323 323 323 324 325 323 322 322 321 319 316 312 310 310 308 305 304 305 306 304 298 295 296 293 288 283 281 280 282 277 276 268 265
230 281 320 320 324 326 328 326 327 328 329 331 331 334 333 332 329 326 325 320 316 313 311 309 306 307 307 307 304 298 295 301 299 296 294 291 290 288 285 282 275 266 264
245 283 307 315 320 322 324 327 331 332 333 334 334 334 334 332 329 328 326 321 317 311 309 307 308 311 307 305 303 300 298 296 293 294 291 290 288 288 288 287 280 269 265
270 298 305 314 319 324 328 329 332 333 333 333 333 332 333 332 331 329 322 321 317 313 309 308 306 307 308 304 306 305 301 297 292 288 288 287 286 287 288 285 283 277 270
280 298 312 322 326 326 327 329 331 331 331 332 334 333 331 331 330 329 326 324 323 316 314 314 313 307 306 309 310 311 310 304 295 290 288 290 291 289 289 285 280 278 274
301 314 321 322 322 325 328 330 332 335 336 334 334 331 330 327 328 322 321 320 318 317 314 310 306 311 314 315 314 313 312 310 301 295 289 289 287 294 285 283 280 278 273
307 314 320 324 326 329 331 332 335 334 337 339 340 335 329 320 319 320 318 318 317 317 309 308 313 316 316 317 315 313 313 311 308 306 298 295 296 293 284 291 275 272 270
313 317 321 329 333 334 331 330 330 334 337 339 340 339 334 327 324 323 321 319 314 313 313 319 319 319 318 318 318 316 313 313 309 303 304 298 294 298 293 290 283 273 265
312 325 334 333 328 329 333 334 332 332 333 338 342 342 340 334 331 325 323 317 319 323 324 324 322 322 321 321 320 318 318 318 315 312 305 302 302 297 295 290 290 286 269
320 319 318 319 324 327 329 330 330 331 334 336 340 344 342 336 336 338 332 325 325 325 324 323 325 324 325 326 324 322 320 318 319 316 312 305 302 301 294 293 292 283 288
310 313 322 321 327 328 328 328 328 330 331 333 338 341 338 336 338 336 336 330 327 323 321 321 323 326 328 328 328 327 325 324 323 322 315 309 306 303 298 295 293 295 284
308 312 313 321 325 325 322 322 324 328 328 329 332 336 337 326 330 332 333 332 328 324 321 319 319 323 328 330 329 328 325 325 328 324 320 315 306 301 299 297 295 293 294
308 314 317 317 314 315 318 322 322 321 324 324 328 331 332 329 329 330 330 329 328 326 324 322 320 322 327 331 331 328 326 327 330 326 318 309 304 301 298 296 293 292 293
306 304 304 311 314 315 317 318 318 320 321 323 324 325 327 327 327 327 327 328 327 327 326 325 322 323 325 328 329 330 328 329 331 328 312 308 304 300 300 295 292 289 288
299 304 310 310 310 311 312 314 317 319 320 321 321 321 322 321 322 324 325 326 326 325 326 325 324 326 324 323 327 328 328 333 335 324 325 314 310 308 301 294 291 293 287
301 303 303 306 307 309 312 314 315 317 316 315 315 315 317 318 318 320 322 323 324 324 326 327 326 328 328 324 321 325 330 338 338 336 330 321 323 322 316 307 301 301 291
295 299 302 304 307 310 313 314 314 314 315 313 312 313 314 315 316 318 319 321 321 323 324 325 328 330 330 329 332 331 334 344 339 337 334 332 329 328 327 322 316 310 295